Time,TemperatureF,DewpointF,PressureIn,WindDirection,WindDirectionDegrees,WindSpeedMPH,WindSpeedGustMPH,Humidity,HourlyPrecipIn,Conditions,Clouds,dailyrainin,SolarRadiationWatts/m^2,SoftwareType,DateUTC
2013-06-01 00:45:00,44.0,20.6,30.49,East,98,1.0,3.0,39,0.00,CLR,SKC,0.00,0.0,WeatherDisplay:10.37,2013-06-01 06:45:00,
2013-06-01 01:15:00,43.0,20.9,30.48,East,98,1.0,2.0,41,0.00,CLR,SKC,0.00,0.0,WeatherDisplay:10.37,2013-06-01 07:15:00,
2013-06-01 01:45:00,43.3,21.1,30.48,ESE,109,1.0,5.0,41,0.00,CLR,SKC,0.00,0.0,WeatherDisplay:10.37,2013-06-01 07:45:00,
2013-06-01 02:15:00,41.7,20.9,30.49,ESE,113,0.0,2.0,43,0.00,CLR,SKC,0.00,0.0,WeatherDisplay:10.37,2013-06-01 08:15:00,
2013-06-01 02:45:00,40.4,22.3,30.48,ESE,113,0.0,2.0,48,0.00,CLR,SKC,0.00,0.0,WeatherDisplay:10.37,2013-06-01 08:45:00,
2013-06-01 03:15:00,41.4,21.6,30.49,ESE,113,0.0,1.0,45,0.00,CLR,SKC,0.00,0.0,WeatherDisplay:10.37,2013-06-01 09:15:00,
2013-06-01 03:44:00,38.5,23.3,30.50,ESE,113,0.0,2.0,54,0.00,CLR,SKC,0.00,0.0,WeatherDisplay:10.37,2013-06-01 09:44:00,
2013-06-01 04:14:00,38.4,22.7,30.50,ESE,113,1.0,2.0,53,0.00,CLR,SKC,0.00,0.0,WeatherDisplay:10.37,2013-06-01 10:14:00,
2013-06-01 04:44:00,37.8,22.2,30.49,ESE,113,1.0,3.0,53,0.00,CLR,SKC,0.00,0.0,WeatherDisplay:10.37,2013-06-01 10:44:00,
2013-06-01 05:14:00,36.4,23.0,30.49,ESE,113,0.0,2.0,58,0.00,CLR,SKC,0.00,0.0,WeatherDisplay:10.37,2013-06-01 11:14:00,
2013-06-01 05:44:00,39.6,22.0,30.50,ESE,113,0.0,2.0,49,0.00,CLR,SKC,0.00,0.0,WeatherDisplay:10.37,2013-06-01 11:44:00,
2013-06-01 06:14:00,38.1,22.0,30.51,ESE,113,0.0,1.0,52,0.00,SCT,SKC,0.00,9.0,WeatherDisplay:10.37,2013-06-01 12:14:00,
2013-06-01 06:45:00,39.5,23.8,30.50,ESE,113,0.0,1.0,53,0.00,FEW,SKC,0.00,62.0,WeatherDisplay:10.37,2013-06-01 12:45:00,
2013-06-01 07:15:00,42.9,26.0,30.50,ESE,113,0.0,1.0,51,0.00,CLR,SKC,0.00,158.0,WeatherDisplay:10.37,2013-06-01 13:15:00,
2013-06-01 07:45:00,46.8,27.1,30.51,ESE,114,0.0,1.0,46,0.00,CLR,SKC,0.00,272.0,WeatherDisplay:10.37,2013-06-01 13:45:00,
2013-06-01 08:15:00,49.1,24.6,30.51,WSW,246,0.0,1.0,38,0.00,CLR,SKC,0.00,378.0,WeatherDisplay:10.37,2013-06-01 14:15:00,
2013-06-01 08:45:00,54.9,24.0,30.50,WSW,239,1.0,3.0,30,0.00,CLR,SKC,0.00,476.0,WeatherDisplay:10.37,2013-06-01 14:45:00,
2013-06-01 09:15:00,54.8,24.7,30.49,WSW,255,1.0,3.0,31,0.00,CLR,SKC,0.00,570.0,WeatherDisplay:10.37,2013-06-01 15:15:00,
2013-06-01 09:45:00,56.3,26.8,30.48,WNW,297,2.0,4.0,32,0.00,CLR,SKC,0.00,661.0,WeatherDisplay:10.37,2013-06-01 15:45:00,
2013-06-01 10:15:00,59.3,29.4,30.46,WNW,294,2.0,4.0,32,0.00,CLR,SKC,0.00,745.0,WeatherDisplay:10.37,2013-06-01 16:15:00,
2013-06-01 10:45:00,61.0,25.8,30.44,WNW,296,2.0,5.0,26,0.00,CLR,SKC,0.00,817.0,WeatherDisplay:10.37,2013-06-01 16:45:00,
2013-06-01 11:15:00,61.3,24.2,30.44,NW,315,2.0,3.0,24,0.00,CLR,SKC,0.00,882.0,WeatherDisplay:10.37,2013-06-01 17:15:00,
2013-06-01 11:45:00,64.6,20.1,30.42,WNW,303,1.0,4.0,18,0.00,CLR,SKC,0.00,932.0,WeatherDisplay:10.37,2013-06-01 17:45:00,
2013-06-01 12:15:00,68.4,26.9,30.42,NW,322,1.0,4.0,21,0.00,CLR,SKC,0.00,969.0,WeatherDisplay:10.37,2013-06-01 18:15:00,
2013-06-01 12:45:00,67.9,26.5,30.40,SW,220,5.0,6.0,21,0.00,CLR,SKC,0.00,995.0,WeatherDisplay:10.37,2013-06-01 18:45:00,
2013-06-01 13:15:00,68.9,22.3,30.38,SW,229,3.0,6.0,17,0.00,CLR,SKC,0.00,1002.0,WeatherDisplay:10.37,2013-06-01 19:15:00,
2013-06-01 13:45:00,70.8,22.4,30.37,WNW,287,3.0,7.0,16,0.00,CLR,SKC,0.00,1000.0,WeatherDisplay:10.37,2013-06-01 19:45:00,
2013-06-01 14:15:00,71.2,28.0,30.35,North,353,3.0,5.0,20,0.00,CLR,SKC,0.00,979.0,WeatherDisplay:10.37,2013-06-01 20:15:00,
2013-06-01 14:45:00,71.6,27.1,30.34,NNW,327,2.0,6.0,19,0.00,CLR,SKC,0.00,960.0,WeatherDisplay:10.37,2013-06-01 20:45:00,
2013-06-01 15:15:00,74.1,26.5,30.33,WNW,296,2.0,6.0,17,0.00,CLR,SKC,0.00,909.0,WeatherDisplay:10.37,2013-06-01 21:15:00,
2013-06-01 15:45:00,73.6,23.1,30.32,NW,304,6.0,7.0,15,0.00,CLR,SKC,0.00,789.0,WeatherDisplay:10.37,2013-06-01 21:45:00,
2013-06-01 16:15:00,74.1,25.0,30.30,NNW,340,3.0,6.0,16,0.00,CLR,SKC,0.00,738.0,WeatherDisplay:10.37,2013-06-01 22:15:00,
2013-06-01 16:45:00,74.0,29.1,30.29,NNW,327,5.0,7.0,19,0.00,CLR,SKC,0.00,663.0,WeatherDisplay:10.37,2013-06-01 22:45:00,
2013-06-01 17:15:00,74.4,28.1,30.27,NW,308,3.0,7.0,18,0.00,FEW,SKC,0.00,431.0,WeatherDisplay:10.37,2013-06-01 23:15:00,
2013-06-01 17:45:00,75.5,27.6,30.26,West,273,3.0,6.0,17,0.00,CLR,SKC,0.00,492.0,WeatherDisplay:10.37,2013-06-01 23:45:00,
2013-06-01 18:15:00,75.5,29.0,30.25,WNW,292,5.0,6.0,18,0.00,CLR,SKC,0.00,429.0,WeatherDisplay:10.37,2013-06-02 00:15:00,
2013-06-01 18:45:00,74.7,30.9,30.24,NW,315,2.0,3.0,20,0.00,CLR,SKC,0.00,309.0,WeatherDisplay:10.37,2013-06-02 00:45:00,
2013-06-01 19:15:00,74.2,32.9,30.24,NW,318,2.0,4.0,22,0.00,CLR,SKC,0.00,202.0,WeatherDisplay:10.37,2013-06-02 01:15:00,
2013-06-01 19:45:00,71.4,37.4,30.24,WNW,282,2.0,5.0,29,0.00,BKN,SKC,0.00,53.0,WeatherDisplay:10.37,2013-06-02 01:45:00,
2013-06-01 20:15:00,67.7,35.1,30.24,WNW,295,0.0,1.0,30,0.00,SCT,SKC,0.00,28.0,WeatherDisplay:10.37,2013-06-02 02:15:00,
2013-06-01 20:45:00,64.3,36.8,30.24,WNW,296,0.0,2.0,36,0.00,OVC,SKC,0.00,5.0,WeatherDisplay:10.37,2013-06-02 02:45:00,
2013-06-01 21:15:00,58.8,35.1,30.25,WNW,296,0.0,2.0,41,0.00,CLR,SKC,0.00,0.0,WeatherDisplay:10.37,2013-06-02 03:15:00,
2013-06-01 21:45:00,59.9,31.5,30.25,SE,128,1.0,3.0,34,0.00,CLR,SKC,0.00,0.0,WeatherDisplay:10.37,2013-06-02 03:45:00,
2013-06-01 22:15:00,59.6,30.5,30.26,SE,138,1.0,5.0,33,0.00,CLR,SKC,0.00,0.0,WeatherDisplay:10.37,2013-06-02 04:15:00,
2013-06-01 22:45:00,55.3,32.5,30.27,West,268,0.0,2.0,42,0.00,CLR,SKC,0.00,0.0,WeatherDisplay:10.37,2013-06-02 04:45:00,
2013-06-01 23:15:00,53.6,31.6,30.27,WSW,239,0.0,2.0,43,0.00,CLR,SKC,0.00,0.0,WeatherDisplay:10.37,2013-06-02 05:15:00,
2013-06-01 23:45:00,54.0,30.8,30.26,SE,142,1.0,2.0,41,0.00,CLR,SKC,0.00,0.0,WeatherDisplay:10.37,2013-06-02 05:45:00,